User: anonymous   Login
Location: Pine Mountain Observatory
(43.7910°N, 120.9377°W)
Time: 16:24:47
(UTC-08:00)
Language:

APEX - Orbit

View from above orbital plane
View from above orbital plane
View from above satellite
View from above satellite

Ground track
Ground track

The orbit data is extracted from the following two-line orbital elements,

1 23191U 94046A   14328.76420742  .00027985  00000-0  11275-2 0   607
2 23191 069.9182 190.5403 0716960 085.5571 344.6974 14.09753406983102
Epoch (UTC): 24 November 2014 18:20:27
Eccentricity: 0.0716960
inclination: 69.9182°
perigee height: 341 km
apogee height: 1379 km
right ascension of ascending node: 190.5403°
argument of perigee: 85.5571°
revolutions per day: 14.09753406
mean anomaly at epoch: 344.6974°
orbit number at epoch: 98310

The dashed part of the orbit path shows where the satellite is in the earth's shadow,  

DLR